Language: 


Des rapports , des résumés tant et plus, au choix de chacun....


Données Historiques de Météogheer
Journalier Rapport pour Novembre 28, 2017 Unitée:  Impériale    Métrique   Les deux
Suivant Jour »
Journalier Hebdomadaire Mensuel Annuel Sur mesure
  Max: Min: Moyenne:
Température: 47.5 °F 33.1 °F 40.1 °F
Point de rosée: 48.2 °F 33.8 °F 40.1 °F
Humidité: 98% 90% 97%
Vent: 8.5mph 0mph 1.5mph
Rafales: 10.5mph - -
Vent- - West
Pression: 29.7 in 29.7 in -
Pluie: 0.07 in    
Historical Graphs
 
 
Données tabulaires pour Novembre 28, 2017
Heure Température Point de rosée Pression Vent Vent Rafales Humidité Pluie Taux (Horaire) Conditions
00:02 44.6 °F 44.6 °F 29.7 in West 6.5 mph 7.6 mph 98% 0.01 in
00:07 44.6 °F 44.6 °F 29.7 in West 8.5 mph 8.5 mph 98% 0.01 in
00:12 44.6 °F 44.6 °F 29.7 in WSW 5.8 mph 8.5 mph 98% 0.01 in
00:17 44.6 °F 44.6 °F 29.7 in West 5.4 mph 10.1 mph 98% 0.01 in
00:22 44.6 °F 44.6 °F 29.7 in SSW 6 mph 10.1 mph 98% 0.01 in
00:27 44.6 °F 44.6 °F 29.7 in WSW 3.1 mph 8.5 mph 98% 0.01 in
00:32 44.6 °F 44.6 °F 29.7 in West 6 mph 10.5 mph 98% 0 in
00:37 44.6 °F 44.6 °F 29.7 in West 7.6 mph 10.5 mph 98% 0 in
00:42 44.6 °F 44.6 °F 29.7 in WSW 2.2 mph 9.6 mph 98% 0 in
00:47 44.4 °F 44.6 °F 29.7 in West 6.5 mph 7.6 mph 98% 0 in
00:52 44.4 °F 44.6 °F 29.7 in Calm   6.5 mph 98% 0 in
00:57 44.2 °F 44.6 °F 29.7 in WNW 3.4 mph 6 mph 98% 0 in
01:02 44.2 °F 44.6 °F 29.7 in West 3.1 mph 4.9 mph 98% 0 in
01:06 44.1 °F 44.6 °F 29.7 in Calm   4.9 mph 98% 0 in
01:12 44.1 °F 44.6 °F 29.7 in Calm   4 mph 98% 0 in
01:17 43.9 °F 44.6 °F 29.7 in Calm   3.8 mph 98% 0 in
01:22 43.9 °F 44.6 °F 29.7 in Calm   3.8 mph 98% 0 in
01:27 43.9 °F 44.6 °F 29.7 in West 4 mph 5.4 mph 98% 0 in
01:32 43.9 °F 44.6 °F 29.7 in Calm   5.6 mph 98% 0 in
01:37 43.9 °F 44.6 °F 29.7 in WSW 3.6 mph 6.3 mph 98% 0 in
01:42 44.1 °F 44.6 °F 29.7 in West 5.8 mph 6.3 mph 98% 0 in
01:47 44.1 °F 44.6 °F 29.7 in Calm   6.3 mph 98% 0 in
01:52 43.9 °F 44.6 °F 29.7 in WNW 4.5 mph 7.4 mph 98% 0 in
01:57 43.9 °F 44.6 °F 29.7 in West 5.4 mph 7.4 mph 98% 0 in
02:02 43.9 °F 44.6 °F 29.7 in West 5.8 mph 7.6 mph 98% 0 in
02:07 43.7 °F 44.6 °F 29.7 in WSW 5.6 mph 7.6 mph 98% 0 in
02:12 43.7 °F 44.6 °F 29.7 in West 4.5 mph 7.2 mph 98% 0 in
02:17 43.7 °F 44.6 °F 29.7 in West 5.4 mph 6.3 mph 98% 0 in
02:22 43.5 °F 42.8 °F 29.7 in WSW 5.6 mph 6.3 mph 98% 0 in
02:27 43.5 °F 42.8 °F 29.7 in West 4.3 mph 7.8 mph 98% 0 in
02:32 43.5 °F 42.8 °F 29.7 in West 1.6 mph 7.8 mph 98% 0 in
02:37 43.5 °F 42.8 °F 29.7 in Calm   8.5 mph 98% 0 in
02:42 43.5 °F 42.8 °F 29.7 in West 3.8 mph 8.5 mph 98% 0 in
02:47 43.5 °F 42.8 °F 29.7 in Calm   7.4 mph 98% 0 in
02:52 43.3 °F 42.8 °F 29.7 in Calm   6.3 mph 98% 0 in
02:57 43 °F 42.8 °F 29.7 in West 2 mph 4.3 mph 98% 0 in
03:02 42.8 °F 42.8 °F 29.7 in Calm   3.8 mph 98% 0 in
03:07 42.4 °F 42.8 °F 29.7 in Calm   2 mph 98% 0 in
03:12 42.1 °F 42.8 °F 29.7 in WSW 3.4 mph 3.6 mph 98% 0 in
03:17 41.9 °F 42.8 °F 29.7 in Calm   3.6 mph 98% 0 in
03:22 41.9 °F 42.8 °F 29.7 in Calm   3.4 mph 98% 0 in
03:28 41.9 °F 42.8 °F 29.7 in Calm     98% 0 in
03:33 41.9 °F 42.8 °F 29.7 in West 2.7 mph 2.7 mph 98% 0 in
03:38 41.7 °F 42.8 °F 29.7 in Calm   4 mph 98% 0 in
03:43 41.5 °F 42.8 °F 29.7 in WNW 3.4 mph 4 mph 98% 0 in
03:48 41.4 °F 41 °F 29.7 in West 3.6 mph 4.3 mph 98% 0 in
03:53 41.2 °F 41 °F 29.7 in West 3.1 mph 4.3 mph 98% 0 in
03:58 41 °F 41 °F 29.7 in West 1.6 mph 5.4 mph 98% 0 in
04:03 40.6 °F 41 °F 29.7 in WSW 2.9 mph 5.4 mph 98% 0 in
04:08 40.3 °F 41 °F 29.7 in Calm   4.5 mph 98% 0 in
04:13 39.7 °F 39.2 °F 29.7 in Calm   1.1 mph 98% 0 in
04:18 39.6 °F 39.2 °F 29.7 in Calm     98% 0 in
04:23 39 °F 39.2 °F 29.7 in WSW 1.6 mph 1.6 mph 98% 0 in
04:28 38.7 °F 39.2 °F 29.7 in Calm   1.6 mph 98% 0 in
04:30 38.5 °F 39.2 °F 29.7 in Calm   1.6 mph 98% 0 in
04:35 38.3 °F 39.2 °F 29.7 in Calm   4.7 mph 98% 0 in
04:40 38.3 °F 39.2 °F 29.7 in West 3.1 mph 4.9 mph 98% 0 in
04:45 38.5 °F 39.2 °F 29.7 in Calm   4.9 mph 98% 0 in
04:50 38.5 °F 39.2 °F 29.7 in WSW 3.8 mph 4.9 mph 98% 0 in
04:55 38.5 °F 39.2 °F 29.7 in Calm   4 mph 98% 0 in
05:00 38.3 °F 39.2 °F 29.7 in Calm   4 mph 98% 0 in
05:05 38.1 °F 37.4 °F 29.7 in Calm   3.4 mph 98% 0 in
05:10 38.1 °F 37.4 °F 29.7 in Calm   2.9 mph 98% 0 in
05:15 37.8 °F 37.4 °F 29.7 in Calm   2.9 mph 98% 0 in
05:20 37.4 °F 37.4 °F 29.7 in Calm     98% 0 in
05:25 36.9 °F 37.4 °F 29.7 in Calm     98% 0 in
05:29 36.7 °F 37.4 °F 29.7 in Calm     98% 0 in
05:35 36.9 °F 37.4 °F 29.7 in Calm     98% 0 in
05:40 36.9 °F 37.4 °F 29.7 in West 2.9 mph 3.6 mph 98% 0 in
05:45 37 °F 37.4 °F 29.7 in West 0.9 mph 3.6 mph 98% 0 in
05:50 37 °F 37.4 °F 29.7 in Calm   3.1 mph 98% 0 in
05:55 36.9 °F 37.4 °F 29.7 in WNW 2.2 mph 2.2 mph 98% 0 in
06:00 36.9 °F 37.4 °F 29.7 in Calm   3.1 mph 98% 0 in
06:05 37 °F 37.4 °F 29.7 in West 4 mph 4 mph 98% 0 in
06:10 36.9 °F 37.4 °F 29.7 in Calm   4.3 mph 98% 0 in
06:15 36.7 °F 37.4 °F 29.7 in West 3.1 mph 4.3 mph 98% 0 in
06:20 36.7 °F 37.4 °F 29.7 in Calm   3.8 mph 98% 0 in
06:25 36.3 °F 37.4 °F 29.7 in Calm   3.4 mph 98% 0 in
06:30 35.6 °F 35.6 °F 29.7 in Calm     98% 0 in
06:35 35.2 °F 35.6 °F 29.7 in Calm     98% 0 in
06:40 35.1 °F 35.6 °F 29.7 in Calm   2.5 mph 98% 0 in
06:45 35.1 °F 35.6 °F 29.7 in West 2.5 mph 3.6 mph 98% 0 in
06:50 35.1 °F 35.6 °F 29.7 in Calm   4.3 mph 98% 0 in
06:55 34.9 °F 35.6 °F 29.7 in Calm   4.3 mph 98% 0 in
07:00 34.3 °F 33.8 °F 29.7 in Calm     98% 0 in
07:05 34 °F 33.8 °F 29.7 in Calm     98% 0 in
07:10 33.8 °F 33.8 °F 29.7 in Calm     98% 0 in
07:15 34 °F 33.8 °F 29.7 in Calm     98% 0 in
07:20 34.5 °F 33.8 °F 29.7 in Calm   3.8 mph 98% 0 in
07:25 34.9 °F 35.6 °F 29.7 in WNW 1.1 mph 3.8 mph 98% 0 in
07:30 35.1 °F 35.6 °F 29.7 in Calm   2.9 mph 98% 0 in
07:35 34.9 °F 35.6 °F 29.7 in Calm   2.9 mph 98% 0 in
07:40 34.9 °F 35.6 °F 29.7 in Calm     98% 0 in
07:45 35.1 °F 35.6 °F 29.7 in Calm     98% 0 in
07:51 35.1 °F 35.6 °F 29.7 in Calm     98% 0 in
07:56 34.9 °F 35.6 °F 29.7 in Calm     98% 0 in
08:01 34.3 °F 33.8 °F 29.7 in Calm     98% 0 in
08:06 34.2 °F 33.8 °F 29.7 in Calm     98% 0 in
08:11 34.2 °F 33.8 °F 29.7 in Calm     98% 0 in
08:16 34.3 °F 33.8 °F 29.7 in West 2.7 mph 2.7 mph 98% 0 in
08:21 34.3 °F 33.8 °F 29.7 in Calm   3.8 mph 98% 0 in
08:26 34 °F 33.8 °F 29.7 in Calm   3.8 mph 98% 0 in
08:31 33.6 °F 33.8 °F 29.7 in Calm   2.5 mph 98% 0 in
08:36 33.3 °F 33.8 °F 29.7 in Calm     98% 0 in
08:41 33.1 °F 33.8 °F 29.7 in Calm   0.9 mph 98% 0 in
08:46 33.1 °F 33.8 °F 29.7 in Calm   0.9 mph 98% 0 in
08:51 33.3 °F 33.8 °F 29.7 in Calm     98% 0 in
08:56 33.6 °F 33.8 °F 29.7 in Calm     98% 0 in
09:01 34.3 °F 33.8 °F 29.7 in Calm   2.9 mph 98% 0 in
09:06 34.9 °F 35.6 °F 29.7 in Calm   2.9 mph 98% 0 in
09:11 34.7 °F 35.6 °F 29.7 in Calm   2.5 mph 98% 0 in
09:17 34.7 °F 35.6 °F 29.7 in Calm     98% 0 in
09:22 34.7 °F 35.6 °F 29.7 in Calm     98% 0 in
09:27 34.7 °F 35.6 °F 29.7 in Calm     98% 0 in
09:32 34.9 °F 35.6 °F 29.7 in Calm     98% 0 in
09:37 35.4 °F 35.6 °F 29.7 in Calm     98% 0 in
09:42 35.8 °F 35.6 °F 29.7 in West 1.3 mph 1.3 mph 98% 0 in
09:47 36.3 °F 37.4 °F 29.7 in Calm   1.3 mph 98% 0 in
09:52 36.9 °F 37.4 °F 29.7 in Calm   1.3 mph 98% 0 in
09:57 37.2 °F 37.4 °F 29.7 in Calm     98% 0 in
10:02 38.7 °F 39.2 °F 29.7 in Calm     98% 0 in
10:07 39.2 °F 39.2 °F 29.7 in Calm     98% 0 in
10:12 39.7 °F 39.2 °F 29.7 in Calm     98% 0 in
10:17 40.1 °F 41 °F 29.7 in Calm     98% 0 in
10:22 40.6 °F 41 °F 29.7 in Calm     98% 0 in
10:27 41 °F 41 °F 29.7 in Calm     98% 0 in
10:32 41.5 °F 42.8 °F 29.7 in Calm   2 mph 98% 0 in
10:37 42.3 °F 42.8 °F 29.7 in Calm   2 mph 98% 0 in
10:42 42.8 °F 42.8 °F 29.7 in Calm     98% 0 in
10:43 42.8 °F 42.8 °F 29.7 in Calm     98% 0 in
10:48 43.2 °F 42.8 °F 29.7 in WSW 3.4 mph 5.4 mph 98% 0 in
10:53 43.7 °F 44.6 °F 29.7 in WSW 4 mph 5.4 mph 98% 0 in
10:58 44.1 °F 44.6 °F 29.7 in Calm   4 mph 98% 0 in
11:03 44.8 °F 44.6 °F 29.7 in SSW 4 mph 4 mph 98% 0 in
11:08 44.4 °F 44.6 °F 29.7 in Calm   4 mph 98% 0 in
11:13 44.6 °F 44.6 °F 29.7 in Calm   3.8 mph 98% 0 in
11:18 44.6 °F 44.6 °F 29.7 in SSW 4 mph 5.6 mph 98% 0 in
11:23 45 °F 44.6 °F 29.7 in SSW 5.6 mph 7.4 mph 98% 0 in
11:28 45.3 °F 44.6 °F 29.7 in SW 5.8 mph 7.4 mph 98% 0 in
11:33 45.7 °F 46.4 °F 29.7 in SW 5.4 mph 6.5 mph 98% 0 in
11:38 45.7 °F 46.4 °F 29.7 in WSW 5.8 mph 7.4 mph 98% 0 in
11:43 45.3 °F 44.6 °F 29.7 in WSW 4.7 mph 7.4 mph 97% 0 in
11:49 45.1 °F 44.6 °F 29.7 in SW 5.6 mph 6.3 mph 97% 0 in
11:54 45 °F 44.6 °F 29.7 in SW 5.4 mph 7.6 mph 96% 0 in
11:59 45.7 °F 44.6 °F 29.7 in SW 3.6 mph 7.6 mph 97% 0 in
12:04 46.8 °F 46.4 °F 29.7 in SW 5.6 mph 6.5 mph 97% 0 in
12:09 47.5 °F 48.2 °F 29.7 in WSW 5.6 mph 7.6 mph 96% 0 in
12:14 47.3 °F 46.4 °F 29.7 in WSW 2.7 mph 7.6 mph 95% 0 in
12:19 47.3 °F 46.4 °F 29.7 in WSW 3.6 mph 6.3 mph 94% 0 in
12:24 47.3 °F 46.4 °F 29.7 in WSW 4.3 mph 5.8 mph 94% 0 in
12:29 46.9 °F 46.4 °F 29.7 in Calm   5.8 mph 93% 0 in
12:34 46.8 °F 44.6 °F 29.7 in Calm   5.8 mph 93% 0 in
12:39 46.8 °F 44.6 °F 29.7 in WSW 6.5 mph 6.5 mph 93% 0 in
12:44 46.4 °F 44.6 °F 29.7 in SW 3.6 mph 6.5 mph 92% 0 in
12:49 46.4 °F 44.6 °F 29.7 in SW 3.8 mph 6.3 mph 92% 0 in
12:59 45.9 °F 42.8 °F 29.7 in SSW 4.9 mph 7.4 mph 92% 0 in
13:04 45.9 °F 42.8 °F 29.7 in Calm   7.4 mph 92% 0 in
13:09 46 °F 44.6 °F 29.7 in WSW 4.9 mph 7.2 mph 93% 0 in
13:19 45.9 °F 42.8 °F 29.7 in WSW 5.4 mph 8.1 mph 92% 0 in
13:24 45.9 °F 44.6 °F 29.7 in WSW 4 mph 6.5 mph 93% 0 in
13:34 46 °F 44.6 °F 29.7 in Calm   5.8 mph 93% 0 in
13:39 46 °F 44.6 °F 29.7 in WSW 4.9 mph 5.8 mph 93% 0 in
13:45 46 °F 44.6 °F 29.7 in WSW 5.6 mph 6.5 mph 93% 0 in
13:50 46 °F 44.6 °F 29.7 in WSW 6 mph 7.4 mph 93% 0 in
13:55 46 °F 44.6 °F 29.7 in WSW 4.9 mph 7.4 mph 93% 0 in
14:05 46.2 °F 42.8 °F 29.7 in West 3.1 mph 7.6 mph 90% 0 in
14:10 45.7 °F 42.8 °F 29.7 in SSW 4 mph 6.5 mph 90% 0.01 in
14:20 45 °F 42.8 °F 29.7 in WNW 2.7 mph 5.4 mph 90% 0.02 in
14:30 44.8 °F 42.8 °F 29.7 in NW 3.4 mph 3.4 mph 92% 0.02 in
14:35 44.8 °F 42.8 °F 29.7 in WNW 3.1 mph 4.3 mph 93% 0.02 in
14:40 44.6 °F 42.8 °F 29.7 in Calm   4.3 mph 93% 0.02 in
14:45 44.4 °F 42.8 °F 29.7 in Calm   1.1 mph 94% 0.02 in
14:50 44.2 °F 42.8 °F 29.7 in West 1.3 mph 2.5 mph 94% 0.03 in
14:55 44.1 °F 42.8 °F 29.7 in Calm   2.9 mph 95% 0.03 in
15:00 44.2 °F 42.8 °F 29.7 in Calm   4 mph 95% 0.03 in
15:05 44.4 °F 42.8 °F 29.7 in Calm   4 mph 95% 0.03 in
15:15 44.1 °F 42.8 °F 29.7 in West 4 mph 5.6 mph 96% 0.01 in
15:20 43.5 °F 42.8 °F 29.7 in West 3.1 mph 6.3 mph 95% 0.03 in
15:25 43.2 °F 42.8 °F 29.7 in Calm   6.3 mph 95% 0.04 in
15:30 43.2 °F 42.8 °F 29.7 in Calm   4 mph 95% 0.04 in
15:40 43 °F 42.8 °F 29.7 in Calm   3.6 mph 96% 0.04 in
15:45 42.8 °F 42.8 °F 29.7 in Calm     96% 0.04 in
15:50 42.8 °F 42.8 °F 29.7 in Calm     96% 0.03 in
15:55 42.6 °F 42.8 °F 29.7 in Calm     97% 0.03 in
16:00 42.6 °F 42.8 °F 29.7 in Calm     97% 0.03 in
16:05 42.4 °F 42.8 °F 29.7 in Calm     97% 0.03 in
16:10 42.4 °F 42.8 °F 29.7 in Calm     97% 0.03 in
16:15 42.4 °F 42.8 °F 29.7 in Calm     98% 0.03 in
16:20 42.3 °F 42.8 °F 29.7 in Calm     98% 0.01 in
16:25 42.1 °F 42.8 °F 29.7 in Calm     98% 0 in
16:26 42.1 °F 42.8 °F 29.7 in Calm     98% 0 in
16:31 42.1 °F 42.8 °F 29.7 in Calm     98% 0 in
16:36 41.9 °F 42.8 °F 29.7 in Calm     98% 0 in
16:41 41.7 °F 42.8 °F 29.7 in Calm     98% 0 in
16:46 41.5 °F 42.8 °F 29.7 in Calm     98% 0 in
16:51 41.2 °F 41 °F 29.7 in Calm   2.9 mph 98% 0 in
17:01 40.6 °F 41 °F 29.7 in Calm     98% 0 in
17:06 40.5 °F 41 °F 29.7 in Calm     98% 0.01 in
17:11 40.3 °F 41 °F 29.7 in Calm     98% 0.01 in
17:16 40.1 °F 41 °F 29.7 in Calm     98% 0.01 in
17:26 39.9 °F 39.2 °F 29.7 in North 3.1 mph 3.6 mph 98% 0.01 in
17:31 39.9 °F 39.2 °F 29.7 in WNW 1.6 mph 3.1 mph 98% 0.01 in
17:41 39.7 °F 39.2 °F 29.7 in Calm   3.1 mph 98% 0.01 in
17:46 39.7 °F 39.2 °F 29.7 in Calm   1.1 mph 98% 0.01 in
17:51 39.6 °F 39.2 °F 29.7 in Calm     98% 0.01 in
17:56 39.6 °F 39.2 °F 29.7 in Calm     98% 0.01 in
18:01 39.6 °F 39.2 °F 29.7 in Calm     98% 0.01 in
18:06 39.6 °F 39.2 °F 29.7 in Calm   3.1 mph 98% 0 in
18:11 39.7 °F 39.2 °F 29.7 in Calm   3.1 mph 98% 0 in
18:16 39.6 °F 39.2 °F 29.7 in Calm   1.3 mph 98% 0 in
18:21 39.6 °F 39.2 °F 29.7 in Calm   1.3 mph 98% 0 in
18:26 39.6 °F 39.2 °F 29.7 in Calm     98% 0 in
18:31 39.6 °F 39.2 °F 29.7 in NW 1.6 mph 2.9 mph 98% 0 in
18:36 39.4 °F 39.2 °F 29.7 in Calm   2.9 mph 98% 0 in
18:41 39.2 °F 39.2 °F 29.7 in Calm   2.2 mph 98% 0 in
18:46 39.2 °F 39.2 °F 29.7 in Calm     98% 0 in
18:51 39 °F 39.2 °F 29.7 in Calm     98% 0 in
18:56 39 °F 39.2 °F 29.7 in Calm     98% 0 in
19:01 38.8 °F 39.2 °F 29.7 in Calm     98% 0 in
19:16 38.7 °F 39.2 °F 29.7 in Calm     98% 0 in
19:26 38.3 °F 39.2 °F 29.7 in Calm     98% 0 in
19:31 38.3 °F 39.2 °F 29.7 in Calm     98% 0 in
19:36 38.3 °F 39.2 °F 29.7 in Calm     98% 0 in
19:41 38.1 °F 37.4 °F 29.7 in Calm     98% 0 in
19:47 38.3 °F 39.2 °F 29.7 in NW 4.3 mph 6 mph 98% 0 in
19:52 38.5 °F 39.2 °F 29.7 in Calm   6 mph 98% 0 in
19:57 38.5 °F 39.2 °F 29.7 in Calm   4.3 mph 98% 0 in
20:07 38.7 °F 39.2 °F 29.7 in West 3.6 mph 6.3 mph 98% 0 in
20:12 39 °F 39.2 °F 29.7 in WSW 3.6 mph 8.7 mph 98% 0 in
20:22 39 °F 39.2 °F 29.7 in West 0.9 mph 9.6 mph 98% 0 in
20:27 39 °F 39.2 °F 29.7 in NNW 2.7 mph 7.8 mph 98% 0 in
20:32 39.2 °F 39.2 °F 29.7 in NNW 1.3 mph 7.8 mph 98% 0 in
20:37 39.2 °F 39.2 °F 29.7 in NNW 2 mph 5.4 mph 98% 0 in
20:42 39.2 °F 39.2 °F 29.7 in WNW 4.9 mph 6.5 mph 97% 0 in
20:47 39.2 °F 39.2 °F 29.7 in Calm   6.5 mph 97% 0 in
20:57 38.8 °F 37.4 °F 29.7 in North 0.9 mph 5.4 mph 97% 0 in
21:02 38.7 °F 37.4 °F 29.7 in Calm   3.6 mph 97% 0 in
21:07 38.7 °F 37.4 °F 29.7 in WNW 1.6 mph 4 mph 96% 0 in
21:12 38.3 °F 37.4 °F 29.7 in Calm   4 mph 96% 0 in
21:17 38.1 °F 37.4 °F 29.7 in Calm   2.9 mph 96% 0 in
21:22 37.8 °F 37.4 °F 29.7 in Calm   1.1 mph 96% 0 in
21:27 37.6 °F 37.4 °F 29.7 in Calm     96% 0 in
21:32 37.2 °F 37.4 °F 29.7 in WSW 3.4 mph 4 mph 96% 0 in
21:43 36.5 °F 37.4 °F 29.7 in West 2.5 mph 3.8 mph 96% 0 in
21:48 36.1 °F 35.6 °F 29.7 in Calm   3.6 mph 96% 0 in
21:58 35.4 °F 35.6 °F 29.7 in Calm   0.9 mph 97% 0 in
22:03 35.4 °F 35.6 °F 29.7 in West 2.7 mph 2.7 mph 97% 0 in
22:08 35.2 °F 33.8 °F 29.7 in Calm   3.8 mph 97% 0 in
22:13 35.1 °F 35.6 °F 29.7 in Calm   3.8 mph 98% 0 in
22:18 34.9 °F 35.6 °F 29.7 in Calm     98% 0 in
22:23 34.9 °F 35.6 °F 29.7 in Calm     98% 0 in
22:28 34.9 °F 35.6 °F 29.7 in Calm     98% 0 in
22:33 34.7 °F 35.6 °F 29.7 in Calm     98% 0 in
22:38 34.7 °F 35.6 °F 29.7 in Calm   4.3 mph 98% 0 in
22:43 34.7 °F 35.6 °F 29.7 in Calm   4.3 mph 98% 0 in
22:53 34.7 °F 35.6 °F 29.7 in Calm   4.3 mph 98% 0 in
22:58 34.5 °F 33.8 °F 29.7 in Calm   4.3 mph 98% 0 in
23:08 34.3 °F 33.8 °F 29.7 in Calm   4.3 mph 98% 0 in
23:13 34.2 °F 33.8 °F 29.7 in WSW 4.7 mph 4.7 mph 98% 0 in
23:19 34 °F 33.8 °F 29.7 in West 3.1 mph 5.4 mph 98% 0 in
23:24 34.2 °F 33.8 °F 29.7 in West 3.4 mph 5.6 mph 98% 0 in
23:28 34.2 °F 33.8 °F 29.7 in West 3.8 mph 5.6 mph 98% 0 in
23:34 34 °F 33.8 °F 29.7 in Calm   5.6 mph 98% 0 in
23:39 34 °F 33.8 °F 29.7 in West 4.7 mph 7.6 mph 98% 0 in
23:44 34 °F 33.8 °F 29.7 in WSW 3.8 mph 7.6 mph 98% 0 in
23:49 34 °F 33.8 °F 29.7 in Calm   5.8 mph 98% 0 in
23:54 33.8 °F 33.8 °F 29.7 in Calm   5.4 mph 98% 0 in
23:59 33.6 °F 33.8 °F 29.7 in Calm   5.6 mph 98% 0 in
Données Historique de Météo Turbie

Mise a jour : 22/05/2018 19:52:12
Généré par Cumulus 1.9.4 (1099)